Location: Clermont
(50.2608°N, 4.3172°E)
Time: 07:19:49
(UTC+00:00)

Okean 3 - Pass Details

Date: 13 August 2020
Orbit: 576 x 601 km, 82.5° (Epoch: 27 September)

Event Time Altitude Azimuth Distance (km) Brightness Sun altitude
Rises 21:45:12 0° 348° (NNW) 2,856 8.3 -20.1°
Reaches altitude 10° 21:47:25 10° 347° (NNW) 1,951 7.2 -20.3°
Maximum altitude 21:51:44 76° 262° (W) 625 3.5 -20.6°
Enters shadow 21:52:46 51° 191° (S) 765 3.7 -20.7°
